| time (UTC) | temp F | wind direction | speed knots | gust knots | rain 1hr in | rain 24hr in | rain mn in | humidity % | barometer mb |
| 20260504100106 | 41 | 126 | 1.7 | 4.3 | 0.00 | 0.00 | 0.00 | 83 | 1010.2 |
| 20260504081512 | 44 | 106 | 0.0 | 0.0 | 0.00 | 0.00 | 0.00 | 76 | 1010.2 |
| 20260504050017 | 45 | 294 | 0.0 | 0.9 | 0.00 | 0.00 | 0.00 | 75 | 1010.8 |
| 20260504044551 | 44 | 294 | 0.0 | 0.0 | 0.00 | 0.00 | 0.00 | 75 | 1011.0 |
| 20260504043100 | 44 | 294 | 0.0 | 0.0 | 0.00 | 0.00 | 0.00 | 72 | 1011.5 |
| 20260504041516 | 44 | 294 | 0.0 | 1.7 | 0.00 | 0.00 | 0.00 | 72 | 1011.5 |
| 20260504040014 | 43 | 294 | 0.0 | 0.0 | 0.00 | 0.00 | 0.00 | 73 | 1011.4 |
| 20260504034538 | 43 | 294 | 0.0 | 0.0 | 0.00 | 0.00 | 0.00 | 73 | 1011.3 |
| 20260504033114 | 42 | 294 | 0.0 | 0.0 | 0.00 | 0.00 | 0.00 | 73 | 1011.1 |
| 20260504031522 | 42 | 294 | 0.0 | 0.0 | 0.00 | 0.00 | 0.00 | 73 | 1010.9 |
| 20260504030046 | 42 | 293 | 0.0 | 0.0 | 0.00 | 0.00 | 0.00 | 72 | 1011.0 |
| 20260504024550 | 42 | 294 | 0.0 | 0.0 | 0.00 | 0.00 | 0.00 | 71 | 1010.9 |
| 20260504023012 | 42 | 294 | 0.0 | 0.0 | 0.00 | 0.00 | 0.00 | 69 | 1010.9 |
| 20260504021543 | 43 | 295 | 0.0 | 0.0 | 0.00 | 0.00 | 0.00 | 66 | 1010.9 |
| 20260504020109 | 44 | 295 | 0.0 | 0.0 | 0.00 | 0.00 | 0.00 | 64 | 1011.1 |
| 20260504014513 | 45 | 294 | 0.0 | 0.0 | 0.00 | 0.00 | 0.00 | 64 | 1011.0 |
| 20260504013037 | 46 | 295 | 0.0 | 0.0 | 0.00 | 0.00 | 0.00 | 59 | 1010.9 |
| 20260504011554 | 47 | 294 | 0.0 | 0.0 | 0.00 | 0.00 | 0.00 | 56 | 1010.7 |
| 20260504010119 | 48 | 294 | 0.0 | 0.0 | 0.00 | 0.00 | 0.00 | 54 | 1010.6 |
| 20260504004520 | 49 | 296 | 0.0 | 2.6 | 0.00 | 0.00 | 0.00 | 53 | 1010.5 |
| 20260504003041 | 50 | 289 | 0.0 | 1.7 | 0.00 | 0.00 | 0.00 | 51 | 1010.5 |
| 20260504001510 | 51 | 256 | 0.9 | 5.2 | 0.00 | 0.00 | 0.00 | 49 | 1010.2 |
| 20260504000010 | 52 | 247 | 1.7 | 5.2 | 0.00 | 0.00 | 0.00 | 45 | 1010.1 |
| 20260503234534 | 53 | 276 | 3.5 | 10.4 | 0.00 | 0.00 | 0.00 | 44 | 1010.0 |
| 20260503233057 | 53 | 295 | 2.6 | 13.0 | 0.00 | 0.00 | 0.00 | 44 | 1009.8 |
| 20260503231525 | 54 | 266 | 0.9 | 6.1 | 0.00 | 0.00 | 0.00 | 41 | 1009.5 |
| 20260503230059 | 54 | 279 | 0.9 | 7.8 | 0.00 | 0.00 | 0.00 | 40 | 1009.3 |
| 20260503224550 | 55 | 231 | 1.7 | 13.0 | 0.00 | 0.00 | 0.00 | 38 | 1009.1 |
| 20260503223007 | 55 | 239 | 3.5 | 9.6 | 0.00 | 0.00 | 0.00 | 38 | 1009.0 |
| 20260503221531 | 55 | 261 | 1.7 | 8.7 | 0.00 | 0.00 | 0.00 | 38 | 1009.0 |
| 20260503220120 | 55 | 260 | 3.5 | 13.0 | 0.00 | 0.00 | 0.00 | 35 | 1009.2 |
| 20260503214519 | 55 | 354 | 0.9 | 8.7 | 0.00 | 0.00 | 0.00 | 35 | 1009.1 |
| 20260503213050 | 55 | 314 | 3.5 | 13.0 | 0.00 | 0.00 | 0.00 | 34 | 1009.0 |
| 20260503211517 | 56 | 49 | 2.6 | 10.4 | 0.00 | 0.00 | 0.00 | 34 | 1009.0 |
| 20260503210056 | 56 | 329 | 6.1 | 14.8 | 0.00 | 0.00 | 0.00 | 35 | 1009.0 |
| 20260503204557 | 55 | 226 | 2.6 | 8.7 | 0.00 | 0.00 | 0.00 | 38 | 1009.1 |
| 20260503203021 | 54 | 312 | 2.6 | 13.9 | 0.00 | 0.00 | 0.00 | 42 | 1009.4 |
| 20260503201548 | 55 | 268 | 6.1 | 10.4 | 0.00 | 0.00 | 0.00 | 37 | 1009.5 |
| 20260503200109 | 54 | 220 | 5.2 | 13.0 | 0.00 | 0.00 | 0.00 | 39 | 1009.5 |
| 20260503194523 | 53 | 330 | 1.7 | 7.0 | 0.00 | 0.00 | 0.00 | 43 | 1009.7 |
| 20260503193053 | 53 | 324 | 2.6 | 9.6 | 0.00 | 0.00 | 0.00 | 43 | 1010.0 |
| 20260503191521 | 53 | 317 | 3.5 | 15.6 | 0.00 | 0.00 | 0.00 | 42 | 1010.2 |
| 20260503190022 | 53 | 249 | 0.9 | 14.8 | 0.00 | 0.00 | 0.00 | 49 | 1010.3 |
| 20260503184545 | 52 | 252 | 4.3 | 11.3 | 0.00 | 0.00 | 0.00 | 44 | 1010.5 |
| 20260503183009 | 52 | 344 | 7.0 | 15.6 | 0.00 | 0.00 | 0.00 | 44 | 1010.6 |
| 20260503181533 | 51 | 296 | 2.6 | 8.7 | 0.00 | 0.00 | 0.00 | 50 | 1010.7 |
| 20260503180126 | 51 | 335 | 7.0 | 12.2 | 0.00 | 0.00 | 0.00 | 48 | 1010.8 |
| 20260503174557 | 49 | 237 | 4.3 | 10.4 | 0.00 | 0.00 | 0.00 | 53 | 1010.9 |
| 20260503173039 | 49 | 8 | 3.5 | 14.8 | 0.00 | 0.00 | 0.00 | 50 | 1011.0 |
| 20260503171555 | 49 | 265 | 3.5 | 9.6 | 0.00 | 0.00 | 0.00 | 51 | 1010.9 |
| 20260503170114 | 49 | 275 | 4.3 | 14.8 | 0.00 | 0.00 | 0.00 | 51 | 1011.0 |
| 20260503150108 | 47 | 325 | 5.2 | 14.8 | 0.00 | 0.00 | 0.00 | 57 | 1011.3 |
| 20260503130121 | 44 | 299 | 2.6 | 11.3 | 0.00 | 0.00 | 0.00 | 71 | 1011.9 |
| 20260503120121 | 42 | 358 | 1.7 | 5.2 | 0.00 | 0.00 | 0.00 | 75 | 1011.5 |
| 20260503110118 | 40 | 263 | 1.7 | 5.2 | 0.00 | 0.00 | 0.00 | 77 | 1011.2 |